QPF
0.00 0.00 0.00 0.00 0.00 0.00 0.00 0.00 0.00 0.00 0.00 0.00 0.00 0.00 0.00 0.00 0.00 0.00 0.00 0.00 0.00 0.00 0.00 0.00 0.00 0.00 0.00 0.00 0.00 0.00 0.00 0.00 0.00 0.00 0.00 0.00 0.00 0.00 0.00 0.00 0.00 0.00 0.00 0.00
0.00 0.00 0.00 0.00 0.00 0.00 0.00 0.00 0.00 0.00 0.00 0.00 0.00 0.00 0.00 0.00 0.00 0.00 0.00 0.00 0.00 0.00 0.00 0.00 0.00 0.00 0.00 0.00 0.00 0.00 0.00 0.00 0.00 0.00 0.00 0.00 0.00 0.00 0.00 0.00 0.00 0.00 0.00 0.00
0.00 0.00 0.00 0.00 0.00 0.00 0.00 0.00 0.00 0.00 0.00 0.00 0.00 0.00 0.00 0.00 0.00 0.00 0.00 0.00 0.00 0.00 0.00 0.00 0.00 0.00 0.00 0.00 0.00 0.00 0.00 0.00 0.00 0.00 0.00 0.00 0.00 0.01 0.01 0.00 0.00 0.00 0.00 0.00
0.00 0.00 0.00 0.00 0.00 0.00 0.00 0.00 0.00 0.00 0.00 0.00 0.00 0.00 0.00 0.00 0.00 0.00 0.00 0.00 0.00 0.00 0.00 0.00 0.00 0.00 0.00 0.00 0.00 0.00 0.00 0.00 0.00 0.00 0.02 0.07 0.09 0.04 0.01 0.00 0.00 0.00 0.00 0.00
0.00 0.00 0.00 0.00 0.00 0.00 0.00 0.00 0.00 0.00 0.00 0.00 0.00 0.00 0.00 0.00 0.00 0.00 0.00 0.00 0.00 0.00 0.00 0.00 0.00 0.00 0.00 0.00 0.00 0.00 0.00 0.00 0.00 0.00 0.01 0.02 0.03 0.03 0.01 0.00 0.00 0.00 0.00 0.00
0.00 0.00 0.00 0.00 0.00 0.00 0.00 0.00 0.00 0.00 0.00 0.00 0.00 0.00 0.00 0.00 0.00 0.00 0.00 0.00 0.00 0.00 0.00 0.00 0.00 0.00 0.00 0.00 0.00 0.00 0.00 0.00 0.00 0.00 0.00 0.00 0.01 0.01 0.00 0.00 0.00 0.00 0.00 0.00
0.00 0.00 0.00 0.00 0.00 0.00 0.00 0.00 0.00 0.00 0.00 0.00 0.00 0.00 0.00 0.00 0.00 0.00 0.00 0.00 0.00 0.00 0.00 0.00 0.00 0.00 0.00 0.00 0.00 0.00 0.00 0.00 0.00 0.00 0.00 0.00 0.00 0.00 0.00 0.00 0.00 0.00 0.00 0.00
0.00 0.00 0.00 0.00 0.00 0.00 0.00 0.00 0.00 0.00 0.00 0.00 0.00 0.00 0.00 0.00 0.00 0.00 0.00 0.00 0.00 0.00 0.00 0.00 0.00 0.00 0.00 0.00 0.00 0.00 0.00 0.00 0.00 0.00 0.00 0.00 0.00 0.00 0.00 0.00 0.00 0.00 0.00 0.00
0.00 0.00 0.00 0.00 0.00 0.00 0.00 0.00 0.00 0.00 0.00 0.00 0.00 0.00 0.00 0.00 0.00 0.00 0.00 0.00 0.00 0.00 0.00 0.00 0.00 0.00 0.00 0.00 0.00 0.00 0.00 0.00 0.00 0.00 0.00 0.00 0.00 0.00 0.00 0.00 0.00 0.00 0.00 0.00
0.00 0.00 0.00 0.00 0.00 0.00 0.00 0.00 0.00 0.00 0.00 0.00 0.00 0.00 0.00 0.00 0.00 0.00 0.00 0.00 0.00 0.00 0.00 0.00 0.00 0.00 0.00 0.00 0.00 0.00 0.00 0.00 0.00 0.00 0.00 0.00 0.00 0.00 0.00 0.00 0.00 0.00 0.00 0.00
0.00 0.00 0.00 0.00 0.00 0.00 0.00 0.00 0.00 0.00 0.00 0.00 0.00 0.00 0.00 0.00 0.00 0.00 0.00 0.00 0.00 0.00 0.00 0.00 0.00 0.00 0.00 0.00 0.00 0.00 0.00 0.00 0.00 0.00 0.00 0.00 0.00 0.00 0.00 0.00 0.00 0.00 0.00 0.00
0.00 0.00 0.00 0.00 0.00 0.00 0.00 0.00 0.00 0.00 0.00 0.00 0.00 0.00 0.00 0.00 0.00 0.00 0.00 0.00 0.00 0.00 0.00 0.00 0.00 0.00 0.00 0.00 0.00 0.00 0.00 0.00 0.00 0.00 0.00 0.00 0.00 0.00 0.00 0.00 0.00 0.00 0.00 0.00
0.00 0.00 0.00 0.00 0.00 0.00 0.00 0.00 0.00 0.00 0.00 0.00 0.00 0.00 0.00 0.00 0.00 0.00 0.00 0.00 0.00 0.00 0.00 0.00 0.00 0.00 0.00 0.00 0.00 0.00 0.00 0.00 0.00 0.00 0.00 0.00 0.00 0.00 0.00 0.00 0.00 0.00 0.00 0.00
0.00 0.00 0.00 0.00 0.00 0.00 0.00 0.00 0.00 0.00 0.00 0.00 0.00 0.00 0.00 0.00 0.00 0.00 0.00 0.00 0.00 0.00 0.00 0.00 0.00 0.00 0.00 0.00 0.00 0.00 0.00 0.00 0.00 0.00 0.00 0.00 0.00 0.00 0.00 0.00 0.00 0.00 0.00 0.00
0.00 0.00 0.00 0.00 0.00 0.00 0.00 0.00 0.00 0.00 0.00 0.00 0.00 0.00 0.00 0.00 0.00 0.00 0.00 0.00 0.00 0.00 0.00 0.00 0.00 0.00 0.00 0.00 0.00 0.00 0.00 0.00 0.00 0.00 0.00 0.00 0.00 0.00 0.00 0.00 0.00 0.00 0.00 0.00
0.00 0.00 0.00 0.00 0.00 0.00 0.00 0.00 0.00 0.00 0.00 0.00 0.00 0.00 0.00 0.00 0.00 0.00 0.00 0.00 0.00 0.00 0.00 0.00 0.00 0.00 0.00 0.00 0.00 0.00 0.00 0.00 0.00 0.00 0.00 0.00 0.00 0.00 0.00 0.00 0.00 0.00 0.00 0.00
0.00 0.00 0.00 0.00 0.00 0.00 0.00 0.00 0.00 0.00 0.00 0.00 0.00 0.00 0.00 0.00 0.00 0.00 0.00 0.00 0.00 0.00 0.00 0.00 0.00 0.00 0.00 0.00 0.00 0.00 0.00 0.00 0.00 0.00 0.00 0.00 0.00 0.00 0.00 0.00 0.00 0.00 0.00 0.00
0.00 0.00 0.00 0.00 0.00 0.00 0.00 0.00 0.00 0.00 0.00 0.00 0.00 0.00 0.00 0.00 0.00 0.00 0.00 0.00 0.00 0.00 0.00 0.00 0.00 0.00 0.00 0.00 0.00 0.00 0.00 0.00 0.00 0.00 0.00 0.00 0.00 0.00 0.00 0.00 0.00 0.00 0.00 0.00
0.00 0.00 0.00 0.00 0.00 0.00 0.00 0.00 0.00 0.00 0.00 0.00 0.00 0.00 0.00 0.00 0.00 0.00 0.00 0.00 0.00 0.00 0.00 0.00 0.00 0.00 0.00 0.00 0.00 0.00 0.00 0.00 0.00 0.00 0.00 0.00 0.00 0.00 0.00 0.00 0.00 0.00 0.00 0.00
0.00 0.00 0.00 0.00 0.00 0.00 0.00 0.00 0.00 0.00 0.00 0.00 0.00 0.00 0.00 0.00 0.00 0.00 0.00 0.00 0.00 0.00 0.00 0.00 0.00 0.00 0.00 0.00 0.00 0.00 0.00 0.00 0.00 0.00 0.00 0.00 0.00 0.00 0.00 0.00 0.00 0.00 0.00 0.00
0.00 0.00 0.00 0.00 0.00 0.00 0.00 0.00 0.00 0.00 0.00 0.00 0.00 0.00 0.00 0.00 0.00 0.00 0.00 0.00 0.00 0.00 0.00 0.00 0.00 0.00 0.00 0.00 0.00 0.00 0.00 0.00 0.00 0.00 0.00 0.00 0.00 0.00 0.00 0.00 0.00 0.00 0.00 0.00
0.00 0.00 0.00 0.00 0.00 0.00 0.00 0.00 0.00 0.00 0.00 0.00 0.00 0.00 0.00 0.00 0.00 0.00 0.00 0.00 0.00 0.00 0.00 0.00 0.00 0.00 0.00 0.00 0.00 0.00 0.00 0.00 0.00 0.00 0.00 0.00 0.00 0.00 0.00 0.00 0.00 0.00 0.00 0.00
0.00 0.00 0.00 0.00 0.00 0.00 0.00 0.00 0.00 0.00 0.00 0.00 0.00 0.00 0.00 0.00 0.00 0.00 0.00 0.00 0.00 0.00 0.00 0.00 0.00 0.00 0.00 0.00 0.00 0.00 0.00 0.00 0.00 0.00 0.00 0.00 0.00 0.00 0.00 0.00 0.00 0.00 0.00 0.00
0.00 0.00 0.00 0.00 0.00 0.00 0.00 0.00 0.00 0.00 0.00 0.00 0.00 0.00 0.00 0.00 0.00 0.00 0.00 0.00 0.00 0.00 0.00 0.00 0.00 0.00 0.00 0.00 0.00 0.00 0.00 0.00 0.00 0.00 0.00 0.00 0.00 0.00 0.00 0.00 0.00 0.00 0.00 0.00
0.00 0.00 0.00 0.00 0.00 0.00 0.00 0.00 0.00 0.00 0.00 0.00 0.00 0.00 0.00 0.00 0.00 0.00 0.00 0.00 0.00 0.00 0.00 0.00 0.00 0.00 0.00 0.00 0.00 0.00 0.00 0.00 0.00 0.00 0.00 0.00 0.00 0.00 0.00 0.00 0.00 0.00 0.00 0.00
0.00 0.00 0.00 0.00 0.00 0.00 0.00 0.00 0.00 0.00 0.00 0.00 0.00 0.00 0.00 0.00 0.00 0.00 0.00 0.00 0.00 0.00 0.00 0.00 0.00 0.00 0.00 0.00 0.00 0.00 0.00 0.00 0.00 0.00 0.00 0.00 0.00 0.00 0.00 0.00 0.00 0.00 0.00 0.00
MSLP
1012.95 1013.73 1013.95 1013.92 1013.90 1013.44 1013.00 1012.74 1012.33 1012.70 1013.16 1013.37 1012.86 1012.23 1011.94 1012.35 1012.56 1012.17 1012.23 1012.78 1013.25 1013.68 1014.55 1015.37 1016.22 1016.82 1017.18 1017.73 1018.09 1018.52 1019.15 1019.85 1020.61 1021.25 1021.86 1022.52 1023.11 1023.65 1024.14 1024.44 1024.59 1024.60 1024.61 1024.68
1013.36 1012.26 1011.75 1012.87 1013.33 1013.65 1013.39 1012.19 1012.66 1013.51 1013.81 1013.91 1013.50 1012.47 1012.37 1012.31 1011.85 1011.59 1011.65 1012.17 1012.56 1013.39 1014.28 1015.21 1015.71 1016.25 1016.71 1017.06 1017.54 1017.98 1018.63 1019.46 1020.05 1020.62 1021.21 1022.00 1022.96 1023.50 1023.91 1025.02 1024.95 1024.80 1025.06 1024.94
1011.75 1011.45 1011.96 1012.86 1013.50 1013.85 1013.25 1012.15 1012.24 1013.61 1014.43 1014.70 1014.11 1012.73 1012.18 1011.76 1011.73 1011.81 1012.00 1011.83 1012.19 1012.58 1013.63 1014.49 1015.05 1015.57 1016.18 1016.43 1016.83 1017.29 1017.98 1018.71 1019.36 1020.06 1021.18 1022.08 1023.30 1024.26 1024.59 1024.91 1025.32 1025.15 1025.17 1025.27
1012.39 1012.27 1012.03 1012.76 1013.38 1013.60 1013.55 1012.93 1012.84 1013.49 1014.29 1014.69 1015.03 1011.93 1010.48 1010.85 1010.91 1011.06 1011.08 1011.46 1011.55 1012.16 1013.05 1013.72 1014.47 1015.01 1015.41 1015.74 1016.37 1016.96 1017.62 1018.26 1018.96 1019.79 1020.62 1021.24 1021.99 1022.98 1023.68 1024.11 1024.50 1024.97 1025.58 1025.59
1013.00 1012.97 1012.75 1013.33 1013.24 1013.84 1013.85 1012.82 1013.88 1014.53 1015.19 1015.08 1014.78 1013.71 1009.60 1010.15 1009.70 1009.66 1010.08 1010.33 1010.88 1011.25 1012.13 1012.98 1013.66 1014.26 1014.99 1015.77 1016.27 1016.96 1017.40 1018.02 1018.63 1019.39 1019.90 1020.63 1021.72 1022.60 1023.31 1023.93 1024.73 1024.85 1025.65 1025.79
1013.65 1013.77 1013.73 1013.69 1013.60 1013.75 1013.66 1013.61 1015.43 1016.20 1016.57 1015.85 1013.26 1012.85 1009.20 1008.64 1008.45 1008.71 1009.08 1009.46 1010.09 1010.88 1011.59 1012.40 1013.32 1014.24 1014.94 1015.88 1016.50 1016.90 1017.19 1017.70 1018.41 1019.08 1019.68 1020.29 1021.29 1022.40 1023.26 1023.50 1024.44 1024.70 1025.63 1026.06
1014.35 1014.73 1014.57 1014.02 1013.89 1014.38 1013.82 1013.65 1016.05 1017.04 1016.94 1014.25 1013.13 1012.60 1008.30 1007.95 1008.20 1008.12 1008.20 1008.75 1009.45 1010.41 1011.39 1012.16 1013.14 1014.06 1014.91 1015.73 1016.36 1016.76 1017.04 1017.55 1018.34 1018.92 1019.52 1020.37 1021.10 1021.86 1022.48 1023.14 1023.62 1024.45 1025.31 1025.86
1013.53 1015.48 1014.82 1014.06 1014.15 1014.20 1013.96 1012.79 1013.35 1013.94 1014.58 1014.21 1014.14 1010.73 1007.68 1007.91 1008.18 1008.83 1009.23 1009.25 1009.70 1010.57 1011.44 1012.22 1013.03 1013.98 1014.90 1015.82 1016.23 1016.74 1016.96 1017.49 1018.18 1018.80 1019.54 1020.23 1020.97 1021.63 1022.11 1022.89 1023.23 1024.20 1024.88 1025.50
1013.33 1014.99 1015.33 1015.24 1014.75 1014.16 1014.79 1013.81 1013.79 1013.79 1014.85 1013.41 1011.47 1010.00 1008.36 1008.24 1008.46 1009.15 1009.31 1010.12 1010.26 1010.67 1011.63 1012.49 1013.53 1014.21 1014.95 1015.81 1016.28 1016.67 1017.06 1017.65 1018.12 1018.79 1019.64 1020.36 1021.10 1021.66 1022.06 1022.70 1023.26 1024.02 1024.77 1025.73
1012.55 1014.48 1015.80 1015.78 1015.46 1015.37 1014.43 1014.14 1014.18 1013.90 1013.78 1012.38 1010.74 1009.55 1008.06 1008.05 1008.26 1008.65 1009.49 1010.04 1010.50 1011.39 1012.22 1012.85 1013.64 1014.26 1015.13 1015.77 1016.33 1016.77 1017.23 1017.81 1018.44 1019.11 1019.74 1020.47 1021.21 1021.69 1022.12 1022.68 1023.31 1024.05 1024.78 1025.44
1012.29 1013.09 1016.23 1016.20 1015.56 1015.02 1015.05 1014.43 1014.18 1013.56 1013.19 1011.78 1010.77 1008.56 1007.52 1007.56 1007.63 1008.03 1008.79 1009.93 1010.60 1011.64 1012.13 1012.79 1013.68 1014.68 1015.33 1015.80 1016.48 1017.00 1017.50 1017.93 1018.62 1019.29 1019.93 1020.57 1021.12 1021.59 1022.19 1022.76 1023.48 1024.07 1024.78 1025.22
1012.82 1013.88 1015.28 1015.92 1015.70 1015.34 1014.40 1013.92 1013.30 1012.73 1013.08 1012.53 1011.40 1008.84 1008.46 1008.54 1008.71 1008.84 1009.61 1010.26 1010.97 1011.77 1012.44 1013.05 1013.80 1014.55 1015.12 1015.74 1016.65 1017.18 1017.64 1018.03 1018.44 1019.13 1019.71 1020.33 1021.08 1021.66 1022.17 1022.84 1023.47 1024.05 1024.76 1025.24
1013.19 1014.07 1014.94 1015.90 1016.20 1015.80 1014.80 1014.15 1013.00 1012.38 1012.21 1011.72 1010.73 1009.14 1008.36 1008.99 1009.50 1009.78 1010.01 1010.61 1011.25 1012.04 1012.80 1013.30 1013.89 1014.41 1014.92 1015.67 1016.55 1017.03 1017.38 1017.96 1018.65 1019.14 1019.73 1020.40 1020.97 1021.56 1022.04 1022.72 1023.42 1023.91 1024.43 1024.96
1013.48 1013.95 1013.87 1013.76 1013.49 1013.35 1014.10 1013.58 1012.89 1012.35 1011.87 1010.73 1009.67 1009.09 1008.76 1009.05 1009.25 1009.58 1010.03 1010.69 1011.10 1011.93 1012.68 1013.17 1013.65 1014.10 1014.84 1015.41 1016.06 1016.75 1017.27 1017.89 1018.68 1019.22 1019.48 1020.14 1020.66 1021.22 1022.04 1022.76 1023.35 1023.76 1024.12 1024.71
1014.25 1014.12 1013.99 1013.85 1013.41 1012.99 1012.51 1012.32 1012.67 1011.93 1011.28 1010.65 1009.73 1009.34 1008.81 1009.00 1009.21 1009.71 1010.13 1010.58 1011.22 1011.59 1012.11 1012.82 1013.15 1013.77 1014.54 1015.16 1015.76 1016.39 1017.08 1017.79 1018.41 1018.99 1019.42 1019.92 1020.63 1021.27 1022.02 1022.78 1023.30 1023.87 1024.19 1024.66
1014.38 1014.53 1014.27 1014.34 1013.93 1013.26 1012.65 1012.08 1011.64 1011.37 1011.44 1010.96 1010.44 1009.76 1009.29 1009.50 1009.74 1009.92 1010.14 1010.66 1011.08 1011.48 1011.91 1012.19 1012.71 1013.44 1014.10 1014.64 1015.20 1016.14 1016.72 1017.44 1018.04 1018.61 1019.05 1019.72 1020.53 1021.36 1022.02 1022.72 1023.29 1023.85 1024.24 1024.57
1014.64 1015.03 1015.01 1014.80 1014.45 1013.60 1012.90 1011.48 1011.45 1011.32 1011.13 1010.74 1010.02 1009.89 1009.83 1009.68 1009.86 1009.88 1009.74 1010.06 1010.43 1011.06 1011.41 1011.77 1012.36 1012.84 1013.24 1013.84 1014.57 1015.46 1016.10 1016.96 1017.76 1018.25 1018.91 1019.57 1020.34 1021.11 1021.81 1022.53 1023.17 1023.58 1023.98 1024.27
1015.12 1015.30 1015.11 1015.09 1014.64 1013.57 1011.79 1011.36 1011.11 1010.84 1010.60 1010.44 1010.02 1010.04 1009.70 1009.51 1009.39 1009.32 1009.69 1009.78 1010.05 1010.45 1010.66 1011.15 1011.57 1011.94 1012.57 1013.46 1014.28 1015.22 1015.99 1016.60 1017.34 1017.92 1018.68 1019.34 1020.05 1020.94 1021.61 1022.33 1022.87 1023.46 1023.60 1023.78
1015.25 1015.30 1015.28 1015.04 1014.31 1012.86 1011.52 1011.35 1011.30 1011.00 1011.12 1011.01 1010.77 1010.30 1010.03 1010.33 1010.63 1009.90 1010.05 1009.89 1009.70 1009.75 1010.16 1010.37 1010.80 1011.41 1012.20 1013.02 1013.88 1014.97 1015.83 1016.35 1017.13 1017.60 1018.25 1019.10 1019.87 1020.60 1021.38 1021.76 1022.28 1022.78 1023.04 1023.07
1015.41 1015.36 1015.10 1014.91 1013.98 1012.87 1012.08 1011.80 1011.56 1011.49 1011.72 1011.79 1011.48 1011.00 1010.91 1011.09 1010.97 1010.01 1010.14 1010.24 1010.05 1010.11 1010.23 1010.44 1010.73 1011.53 1012.13 1012.84 1013.64 1014.70 1015.54 1016.16 1016.68 1017.09 1017.77 1018.66 1019.35 1020.11 1020.53 1021.03 1021.54 1021.84 1022.24 1022.81
1015.72 1015.32 1014.88 1014.29 1013.80 1013.12 1012.50 1012.38 1012.29 1012.62 1013.04 1012.45 1012.23 1011.87 1011.77 1011.81 1011.23 1010.91 1011.06 1010.92 1010.96 1010.91 1010.79 1010.81 1011.13 1011.42 1011.73 1012.54 1013.35 1014.48 1015.30 1015.54 1015.95 1016.66 1017.61 1018.42 1018.94 1019.42 1019.78 1020.38 1021.05 1021.57 1022.20 1022.66
1015.92 1015.38 1014.69 1014.35 1013.83 1013.46 1012.86 1012.86 1012.92 1012.94 1012.80 1012.75 1012.63 1012.60 1012.51 1012.31 1011.82 1011.52 1011.46 1011.47 1011.57 1011.63 1011.52 1011.59 1011.95 1012.26 1012.53 1012.83 1013.30 1014.18 1014.66 1014.87 1015.68 1016.58 1017.47 1018.04 1018.60 1019.11 1019.67 1020.00 1020.43 1021.38 1021.78 1022.05
1015.91 1014.82 1014.60 1014.28 1013.27 1012.44 1012.62 1012.68 1012.77 1013.03 1013.10 1012.86 1012.80 1012.64 1012.59 1012.29 1011.96 1011.63 1011.90 1012.05 1012.04 1012.28 1012.34 1012.46 1012.55 1013.15 1013.70 1013.69 1013.83 1014.27 1014.82 1015.36 1016.12 1016.63 1017.28 1017.78 1018.44 1018.94 1019.55 1020.08 1020.50 1021.51 1021.81 1022.56
1015.31 1015.05 1014.58 1014.08 1013.39 1013.30 1013.14 1012.80 1012.41 1012.52 1012.78 1012.76 1012.71 1012.65 1012.49 1012.46 1012.28 1012.11 1012.43 1013.00 1013.04 1013.01 1012.94 1013.23 1013.56 1014.00 1014.43 1014.78 1014.72 1014.84 1015.35 1015.74 1016.24 1016.62 1017.59 1018.19 1018.60 1018.91 1019.73 1020.08 1020.26 1021.13 1021.65 1021.97
1015.24 1015.08 1014.46 1014.03 1013.67 1013.59 1013.16 1012.84 1012.70 1012.66 1012.68 1012.67 1012.78 1012.53 1012.43 1012.64 1012.86 1013.26 1013.47 1013.79 1013.99 1013.98 1014.05 1014.02 1014.42 1015.14 1015.25 1015.68 1016.05 1016.09 1016.07 1016.07 1016.69 1017.11 1017.61 1018.29 1018.34 1019.10 1019.38 1020.08 1020.51 1020.72 1020.92 1021.27
1014.92 1014.24 1014.07 1013.37 1013.24 1013.39 1012.90 1012.52 1012.59 1012.85 1013.01 1012.88 1013.17 1012.99 1013.12 1013.04 1013.34 1013.92 1014.55 1014.71 1014.80 1014.87 1015.15 1015.47 1015.59 1015.81 1016.59 1016.67 1017.06 1017.22 1016.35 1016.40 1016.71 1017.67 1018.21 1018.49 1018.91 1019.45 1019.79 1019.75 1020.24 1020.52 1020.76 1021.01
Thickness
5577 5582 5589 5600 5610 5617 5635 5638 5646 5657 5649 5653 5663 5678 5684 5685 5686 5697 5702 5702 5701 5702 5702 5701 5697 5695 5695 5692 5690 5688 5683 5678 5671 5666 5661 5654 5648 5642 5636 5632 5629 5626 5623 5620
5569 5591 5617 5615 5611 5610 5616 5640 5635 5626 5635 5644 5648 5663 5666 5675 5688 5698 5701 5700 5701 5698 5697 5693 5695 5694 5692 5691 5689 5687 5682 5676 5672 5666 5661 5654 5643 5636 5631 5623 5621 5620 5615 5613
5586 5603 5604 5597 5593 5597 5614 5631 5640 5635 5626 5628 5638 5655 5661 5674 5681 5684 5687 5698 5699 5701 5694 5693 5694 5693 5691 5691 5689 5687 5683 5677 5672 5666 5655 5647 5635 5626 5622 5618 5613 5613 5608 5604
5573 5583 5592 5591 5591 5602 5603 5629 5636 5625 5631 5620 5619 5650 5676 5677 5677 5677 5688 5689 5698 5699 5696 5697 5694 5692 5692 5691 5688 5685 5681 5676 5670 5663 5655 5648 5642 5631 5623 5619 5612 5606 5598 5594
5558 5572 5585 5582 5591 5592 5598 5619 5617 5615 5606 5607 5614 5620 5681 5670 5675 5684 5689 5697 5698 5704 5699 5694 5694 5693 5690 5686 5683 5679 5677 5672 5667 5660 5656 5648 5636 5627 5619 5613 5603 5600 5591 5586
5547 5558 5570 5580 5583 5590 5592 5604 5591 5583 5583 5587 5625 5622 5665 5670 5680 5692 5698 5700 5700 5698 5697 5694 5692 5688 5686 5679 5675 5674 5672 5668 5662 5656 5651 5645 5634 5621 5613 5609 5599 5594 5583 5576
5533 5536 5550 5568 5574 5572 5587 5597 5569 5571 5575 5604 5625 5608 5666 5678 5685 5696 5701 5701 5702 5697 5692 5691 5686 5682 5679 5674 5670 5668 5667 5663 5656 5651 5645 5637 5628 5619 5613 5605 5599 5588 5577 5569
5556 5547 5548 5566 5567 5568 5582 5605 5595 5593 5592 5607 5578 5618 5660 5678 5681 5677 5679 5688 5693 5686 5685 5684 5682 5678 5673 5667 5664 5662 5661 5657 5650 5644 5637 5629 5621 5614 5608 5600 5593 5581 5572 5564
5551 5541 5534 5545 5558 5573 5559 5578 5588 5585 5547 5600 5617 5632 5656 5661 5664 5664 5674 5672 5679 5682 5678 5675 5670 5669 5666 5660 5657 5656 5654 5648 5643 5636 5628 5620 5612 5605 5600 5592 5584 5574 5563 5552
5557 5542 5520 5532 5546 5549 5565 5578 5574 5577 5576 5597 5607 5624 5650 5655 5665 5669 5666 5668 5672 5668 5665 5665 5662 5660 5656 5654 5650 5648 5645 5638 5631 5625 5619 5611 5602 5596 5591 5582 5573 5563 5554 5545
5554 5557 5518 5520 5531 5549 5551 5555 5561 5577 5574 5598 5604 5634 5654 5662 5674 5677 5670 5661 5664 5659 5661 5659 5656 5650 5647 5644 5639 5636 5631 5627 5620 5614 5608 5601 5594 5589 5580 5572 5562 5554 5544 5537
5540 5530 5533 5527 5524 5533 5557 5561 5571 5586 5567 5570 5577 5628 5622 5634 5641 5648 5651 5650 5653 5652 5651 5650 5646 5641 5638 5634 5626 5622 5619 5616 5613 5607 5601 5593 5585 5578 5571 5563 5554 5545 5535 5527
5531 5528 5532 5526 5519 5509 5531 5541 5568 5570 5570 5569 5588 5617 5614 5622 5626 5630 5636 5637 5637 5638 5636 5636 5633 5631 5629 5624 5616 5614 5611 5607 5600 5596 5589 5583 5577 5570 5564 5555 5545 5536 5529 5522
5518 5518 5537 5556 5556 5553 5537 5540 5556 5566 5567 5581 5596 5613 5616 5617 5621 5626 5627 5625 5627 5623 5625 5628 5625 5623 5618 5614 5610 5607 5603 5596 5588 5582 5582 5575 5568 5562 5554 5544 5535 5528 5523 5515
5504 5517 5519 5524 5533 5543 5555 5553 5550 5557 5572 5578 5597 5597 5611 5610 5612 5615 5615 5614 5615 5618 5620 5618 5618 5614 5610 5606 5603 5598 5591 5584 5580 5575 5571 5565 5559 5552 5543 5532 5526 5518 5514 5508
5499 5503 5505 5510 5522 5535 5544 5551 5555 5561 5558 5565 5563 5580 5589 5592 5593 5601 5606 5604 5606 5608 5607 5610 5609 5606 5602 5600 5596 5588 5584 5577 5573 5569 5564 5558 5549 5539 5531 5523 5517 5511 5505 5501
5494 5490 5500 5512 5500 5523 5537 5543 5551 5553 5558 5565 5567 5580 5577 5581 5586 5593 5601 5600 5601 5599 5600 5601 5599 5599 5598 5596 5591 5584 5579 5571 5565 5561 5555 5548 5539 5530 5523 5516 5510 5506 5501 5496
5482 5484 5489 5490 5496 5520 5539 5533 5547 5555 5561 5562 5568 5570 5576 5584 5588 5591 5589 5595 5594 5594 5599 5598 5596 5596 5594 5588 5583 5577 5570 5563 5557 5552 5545 5537 5530 5522 5516 5509 5503 5499 5496 5492
5473 5478 5477 5491 5493 5516 5534 5528 5533 5540 5548 5550 5556 5563 5568 5567 5564 5579 5579 5585 5594 5595 5593 5597 5597 5593 5588 5582 5576 5566 5558 5553 5546 5543 5537 5528 5521 5515 5509 5505 5501 5497 5492 5490
5467 5467 5480 5465 5493 5510 5522 5514 5516 5525 5539 5527 5535 5543 5546 5549 5557 5575 5569 5571 5577 5580 5583 5584 5582 5577 5576 5572 5565 5556 5550 5544 5540 5537 5531 5523 5517 5511 5509 5504 5499 5496 5491 5484
5465 5466 5476 5476 5487 5494 5497 5496 5502 5519 5526 5509 5516 5525 5530 5537 5553 5550 5545 5556 5555 5560 5566 5569 5568 5571 5569 5561 5556 5548 5540 5538 5535 5527 5521 5515 5512 5509 5506 5501 5496 5489 5482 5476
5454 5462 5472 5470 5479 5490 5480 5489 5506 5504 5497 5499 5506 5511 5513 5518 5524 5530 5535 5539 5539 5543 5546 5550 5553 5553 5550 5548 5547 5540 5537 5534 5525 5518 5512 5510 5507 5503 5499 5496 5492 5482 5476 5472
5447 5461 5464 5469 5486 5484 5478 5485 5484 5480 5488 5494 5497 5503 5503 5509 5519 5523 5525 5526 5527 5528 5531 5530 5535 5530 5527 5528 5530 5529 5522 5518 5512 5510 5506 5504 5499 5495 5491 5487 5481 5472 5467 5460
5436 5432 5448 5451 5457 5462 5464 5469 5476 5476 5479 5484 5486 5492 5497 5501 5507 5511 5512 5510 5512 5510 5515 5515 5517 5516 5512 5509 5512 5513 5508 5506 5504 5503 5496 5491 5489 5487 5480 5477 5475 5466 5460 5454
5436 5423 5438 5438 5442 5438 5451 5456 5465 5467 5469 5474 5477 5487 5492 5492 5496 5495 5495 5492 5493 5496 5498 5503 5503 5498 5496 5495 5492 5492 5495 5497 5494 5489 5485 5484 5483 5476 5474 5467 5463 5458 5455 5448
5416 5424 5428 5442 5430 5435 5451 5451 5450 5455 5459 5467 5468 5475 5466 5474 5480 5475 5473 5473 5477 5481 5483 5484 5484 5483 5478 5479 5477 5475 5485 5487 5485 5477 5474 5473 5470 5464 5460 5460 5455 5448 5444 5439